Home   Weather   Varel   Past weeks

Flag for Germany Past Weather in Varel, Lower Saxony, Germany — Yesterday and Last 2 Weeks

Now
46 °F

Fog.


Feels Like: 46 °F
Forecast: 58 / 67 °F
Wind: 2 mph from South

Location: Wittmundhaven

Current Time: Sep 27, 2016 at 3:58:50 AM

Latest Report: Sep 27, 2016 at 3:20 AM


Visibility: N/A

Pressure: 30.27 "Hg

Humidity: 93%

Dew Point: 45 °F

Location of VarelLocation

Past Weather in Varel — Graph

°F

Varel Temperature Yesterday

Maximum temperature yesterday: 68 °F (at 1:20 PM)
Minimum temperature yesterday: 50 °F (at 11:20 PM)
Average temperature yesterday: 59 °F

High & Low Weather Summary for the Past Weeks

 TemperatureHumidityPressure
High88 °F (Sep 13, 4:20 PM)100% (Sep 12, 7:20 AM)30.27 "Hg (Sep 12, 7:20 AM)
Low46 °F (Sep 24, 4:20 AM)42% (Sep 12, 3:20 PM)29.86 "Hg (Sep 16, 12:20 AM)
Average63 °F75%30.07 "Hg
* Reported Sep 12 2:20 AM — Sep 27 2:20 AM, Varel, Weather by CustomWeather, © 2016

Note: Actual official high and low records may vary slightly from our data, if they occured in-between our weather recording intervals... More about our weather records

Advertising

Varel Weather History for the Previous 24 Hours

Scroll right to see more
 ConditionsComfort  
Time TempWeatherWind HumidityBarometerVisibility
2:20 AM
Tue, Sep 27
46 °FFog.1 mph100%30.24 "HgN/A
1:20 AM48 °FFog.1 mph94%30.24 "HgN/A
12:20 AM50 °FFog.1 mph94%30.24 "HgN/A
11:20 PM
Mon, Sep 26
50 °FFog.No wind94%30.24 "HgN/A
10:20 PM52 °FPassing clouds.No wind94%30.24 "HgN/A
9:20 PM54 °FPassing clouds.1 mph88%30.24 "HgN/A
8:20 PM55 °FPassing clouds.3 mph88%30.24 "HgN/A
7:20 PM57 °FPassing clouds.5 mph82%30.24 "HgN/A
6:20 PM63 °FScattered clouds.6 mph68%30.21 "HgN/A
5:20 PM66 °FScattered clouds.6 mph60%30.21 "HgN/A
4:20 PM68 °FPassing clouds.5 mph49%30.21 "HgN/A
3:20 PM68 °FPassing clouds.6 mph49%30.21 "HgN/A
2:20 PM68 °FPassing clouds.9 mph53%30.21 "HgN/A
1:20 PM68 °FPassing clouds.5 mph53%30.21 "HgN/A
12:20 PM64 °FScattered clouds.5 mph64%30.21 "HgN/A
11:20 AM64 °FScattered clouds.3 mph64%30.21 "HgN/A
10:20 AM63 °FScattered clouds.3 mph73%30.18 "HgN/A
9:20 AM59 °FScattered clouds.2 mph88%30.18 "HgN/A
8:20 AM54 °FFog.3 mph100%30.18 "HgN/A
7:20 AM54 °FFog.5 mph94%30.18 "Hg1 mi
6:50 AM54 °FFog.3 mph94%30.15 "Hg1 mi
6:20 AM54 °FPassing clouds.3 mph100%30.15 "HgN/A
5:20 AM57 °FPassing clouds.5 mph94%30.15 "HgN/A
4:20 AM59 °FPassing clouds.3 mph94%30.15 "HgN/A
3:20 AM57 °FPartly cloudy.5 mph94%30.12 "HgN/A
Weather by CustomWeather, © 2016

See weather overviewHow to use our weather pages